Location: B?dargowo
(53.3916°N, 14.4413°E)
Time: 03:51:01
(UTC+00:00)

Cosmos 1606 Rocket - Pass Details

Date: 05 February 2023
Orbit: 602 x 630 km, 82.5° (Epoch: 24 March)

Event Time Altitude Azimuth Distance (km) Brightness Sun altitude
Rises 17:22:20 0° 345° (NNW) 2,870 7.1 -13.6°
Reaches altitude 10° 17:24:35 10° 341° (NNW) 1,962 6.3 -13.9°
Maximum altitude 17:28:48 54° 265° (W) 738 4.3 -14.5°
Drops below altitude 10° 17:33:01 10° 188° (S) 1,953 6.3 -15.1°
Sets 17:35:15 0° 184° (S) 2,855 7.1 -15.5°
